Emporia, KS

1:02 AM CST on February 14, 2016 (GMT -0600)
Emporia Municipal

Weather History for KEMP - October, 2012

Change the Weather History Date:

Saturday, October 13, 2012

  Actual Average Record
Temperature  
Mean Temperature 66 °F 58 °F  
Max Temperature 71 °F 70 °F 84 °F (1996)
Min Temperature 61 °F 46 °F 32 °F (2006)
Degree Days  
Heating Degree Days 0 8  
Month to date heating degree days 137 83  
Since 1 July heating degree days 177 133  
Cooling Degree Days 1 1  
Month to date cooling degree days 3 21  
Year to date cooling degree days 1868 1394  
Growing Degree Days 16 (Base 50)    
Moisture  
Dew Point 65 °F    
Average Humidity 92    
Maximum Humidity 100    
Minimum Humidity 84    
Precipitation  
Precipitation 0.79 in 0.11 in 0.79 in (2012)
Month to date precipitation 1.68 1.20  
Year to date precipitation 20.30 31.20  
Sea Level Pressure  
Sea Level Pressure 29.81 in    
Wind  
Wind Speed 14 mph (SSE)    
Max Wind Speed 25 mph    
Max Gust Speed 35 mph    
Visibility 5 miles    
Events Rain , Thunderstorm    
T = Trace of Precipitation, MM = Missing Value Source: NWS Daily Summary

Daily Weather History Graph

Daily Weather History Graph

Search for Another Location

Airport or City:

Trip Planner

Search our weather history database for the weather conditions in past years. The results will help you decide how hot, cold, wet, or windy it might be!

Date:

Astronomy

Oct. 13, 2012 Rise Set
Actual Time 7:32 AM CDT 6:48 PM CDT
Civil Twilight 7:05 AM CDT 7:15 PM CDT
Nautical Twilight 6:34 AM CDT 7:46 PM CDT
Astronomical Twilight 6:04 AM CDT 8:16 PM CDT
Moon 5:24 AM CDT (10/13) 5:32 PM CDT (10/13)
Length of Visible Light 12h 09m
Length of Day
11h 16m
Waning Crescent, 5% of the Moon is Illuminated
Oct 13
Waning Crescent
Oct 15
New
Oct 21
First Quarter
Oct 29
Full
Nov 6
Last Quarter

Hourly Weather History & Observations

Time (CDT) Temp. Dew Point Humidity Pressure Visibility Wind Dir Wind Speed Gust Speed Precip Events Conditions
12:29 AM 60.8 °F 60.8 °F 100% 30.01 in 8.0 mi SSE 12.7 mph - N/A   Overcast
12:53 AM 62.1 °F 60.1 °F 93% 29.99 in 8.0 mi SSE 15.0 mph 23.0 mph N/A   Overcast
1:53 AM 62.1 °F 61.0 °F 96% 29.99 in 8.0 mi South 13.8 mph - N/A   Overcast
2:53 AM 63.0 °F 62.1 °F 97% 29.96 in 5.0 mi South 13.8 mph 23.0 mph N/A   Overcast
3:53 AM 64.9 °F 63.0 °F 93% 29.92 in 5.0 mi South 17.3 mph 24.2 mph N/A   Overcast
4:53 AM 66.0 °F 64.9 °F 96% 29.93 in 6.0 mi South 13.8 mph - 0.00 in   Overcast
5:53 AM 66.9 °F 64.9 °F 93% 29.93 in 8.0 mi South 16.1 mph - 0.00 in   Overcast
6:53 AM 66.9 °F 64.9 °F 93% 29.90 in 7.0 mi South 16.1 mph - N/A   Overcast
7:53 AM 66.9 °F 64.9 °F 93% 29.90 in 6.0 mi South 15.0 mph - N/A   Overcast
8:38 AM 66.2 °F 64.4 °F 94% 29.91 in 5.0 mi South 12.7 mph - N/A Thunderstorm Overcast
8:53 AM 66.0 °F 64.9 °F 96% 29.93 in 4.0 mi SSW 15.0 mph - 0.02 in Rain , Thunderstorm Thunderstorms and Rain
9:01 AM 66.2 °F 64.4 °F 94% 29.96 in 2.0 mi West 5.8 mph - 0.06 in Rain , Thunderstorm Heavy Rain
9:08 AM 64.4 °F 62.6 °F 94% 29.94 in 1.8 mi NW 6.9 mph - 0.08 in Rain , Thunderstorm Rain
9:10 AM 64.4 °F 62.6 °F 94% 29.95 in 1.8 mi WNW 6.9 mph - 0.09 in Rain Rain
9:13 AM 64.4 °F 62.6 °F 94% 29.94 in 2.5 mi NNW 5.8 mph - 0.09 in Rain , Thunderstorm Rain
9:17 AM 64.4 °F 62.6 °F 94% 29.94 in 3.0 mi Calm Calm - 0.10 in Rain , Thunderstorm Rain
9:22 AM 64.4 °F 62.6 °F 94% 29.93 in 2.5 mi NNE 4.6 mph - 0.12 in Rain , Thunderstorm Rain
9:31 AM 62.6 °F 62.6 °F 100% 29.92 in 3.0 mi NE 5.8 mph - 0.13 in Rain Light Rain
9:44 AM 62.6 °F 62.6 °F 100% 29.91 in 5.0 mi NE 8.1 mph - 0.15 in Rain Rain
9:53 AM 64.0 °F 62.1 °F 93% 29.91 in 6.0 mi NE 6.9 mph - 0.16 in Rain Light Rain
10:20 AM 62.6 °F 62.6 °F 100% 29.89 in 3.0 mi East 8.1 mph - 0.00 in Rain Light Rain
10:39 AM 64.4 °F 64.4 °F 100% 29.88 in 2.0 mi SE 10.4 mph - N/A Rain Light Rain
10:46 AM 64.4 °F 64.4 °F 100% 29.87 in 1.5 mi SE 10.4 mph - 0.01 in Rain Light Rain
10:53 AM 64.9 °F 64.0 °F 97% 29.86 in 1.8 mi SSE 10.4 mph - 0.01 in Rain Light Rain
11:02 AM 64.4 °F 64.4 °F 100% 29.86 in 2.5 mi SSE 10.4 mph - 0.00 in   Overcast
11:16 AM 66.2 °F 64.4 °F 94% 29.85 in 5.0 mi SSE 12.7 mph 19.6 mph 0.00 in   Overcast
11:53 AM 66.9 °F 64.9 °F 93% 29.84 in 6.0 mi South 18.4 mph 25.3 mph 0.00 in   Overcast
12:39 PM 66.2 °F 64.4 °F 94% 29.83 in 5.0 mi South 17.3 mph - N/A Thunderstorm Overcast
12:53 PM 66.9 °F 64.9 °F 93% 29.81 in 3.0 mi SSE 13.8 mph - 0.00 in Rain , Thunderstorm Light Rain
1:35 PM 68.0 °F 66.2 °F 94% 29.78 in 4.0 mi South 12.7 mph - 0.05 in Rain Rain
1:40 PM 68.0 °F 66.2 °F 94% 29.78 in 3.0 mi South 15.0 mph - 0.06 in Rain , Thunderstorm Thunderstorms and Rain
1:50 PM 68.0 °F 66.2 °F 94% 29.77 in 1.5 mi South 16.1 mph - 0.18 in Rain , Thunderstorm Light Thunderstorms and Rain
1:53 PM 68.0 °F 66.0 °F 93% 29.75 in 1.2 mi SSE 16.1 mph - 0.22 in Rain , Thunderstorm Heavy Thunderstorms and Rain
1:55 PM 68.0 °F 66.2 °F 94% 29.76 in 1.0 mi South 11.5 mph - 0.01 in Rain , Thunderstorm Heavy Thunderstorms and Rain
2:01 PM 68.0 °F 66.2 °F 94% 29.76 in 1.5 mi South 15.0 mph - 0.04 in Rain , Thunderstorm Heavy Thunderstorms and Rain
2:13 PM 68.0 °F 66.2 °F 94% 29.75 in 1.8 mi SSE 5.8 mph 16.1 mph N/A Rain , Thunderstorm Rain
2:21 PM 68.0 °F 66.2 °F 94% 29.76 in 2.0 mi South 13.8 mph 18.4 mph 0.17 in Rain , Thunderstorm Heavy Rain
2:23 PM 68.0 °F 66.2 °F 94% 29.75 in 1.2 mi South 10.4 mph 18.4 mph N/A Rain , Thunderstorm Heavy Rain
2:34 PM 68.0 °F 66.2 °F 94% 29.75 in 2.0 mi South 13.8 mph - 0.30 in Rain , Thunderstorm Light Thunderstorms and Rain
2:41 PM 68.0 °F 66.2 °F 94% 29.75 in 7.0 mi South 15.0 mph - N/A Rain , Thunderstorm Light Thunderstorms and Rain
2:53 PM 68.0 °F 66.0 °F 93% 29.73 in 9.0 mi South 16.1 mph 26.5 mph 0.31 in Rain Light Rain
3:53 PM 68.0 °F 66.9 °F 96% 29.70 in 9.0 mi SSE 12.7 mph 21.9 mph 0.01 in   Overcast
4:53 PM 70.0 °F 68.0 °F 93% 29.68 in 9.0 mi SSE 12.7 mph - N/A   Mostly Cloudy
5:08 PM 69.8 °F 68.0 °F 94% 29.69 in 10.0 mi SSE 16.1 mph 21.9 mph N/A   Scattered Clouds
5:53 PM 71.1 °F 66.9 °F 87% 29.65 in 10.0 mi South 15.0 mph 25.3 mph N/A   Partly Cloudy
6:31 PM 69.8 °F 66.2 °F 88% 29.65 in 5.0 mi South 15.0 mph - 0.01 in Rain , Thunderstorm Thunderstorms and Rain
6:46 PM 69.8 °F 68.0 °F 94% 29.64 in 4.0 mi SSE 13.8 mph - 0.04 in Rain Light Rain
7:08 PM 69.8 °F 68.0 °F 94% 29.64 in 5.0 mi SE 11.5 mph 16.1 mph 0.01 in Rain Light Rain
7:46 PM 69.8 °F 68.0 °F 94% 29.63 in 10.0 mi SE 16.1 mph 21.9 mph 0.01 in Rain Light Rain
7:53 PM 69.1 °F 68.0 °F 96% 29.61 in 9.0 mi SSE 11.5 mph 20.7 mph 0.01 in Rain Light Rain
8:02 PM 69.8 °F 68.0 °F 94% 29.64 in 8.0 mi South 12.7 mph - 0.00 in   Overcast
8:11 PM 69.8 °F 68.0 °F 94% 29.65 in 8.0 mi SSE 15.0 mph - 0.00 in   Overcast
8:53 PM 68.0 °F 64.0 °F 87% 29.65 in 10.0 mi South 18.4 mph 24.2 mph 0.00 in   Overcast
9:53 PM 64.0 °F 61.0 °F 90% 29.62 in 10.0 mi South 17.3 mph 23.0 mph N/A   Scattered Clouds
10:53 PM 63.0 °F 61.0 °F 93% 29.62 in 10.0 mi South 13.8 mph - N/A   Clear